Showing default

GALILEO 11 (268), 41175

Orbit data source: Space-Track

GALILEO 11 (268), 41175 is a payload satellite owned by GNSS Agency (ESA) that was launched on Thu, 17 Dec 2015 UTC via a SOYUZ-ST-B launch vehicle from the French Guiana (FRGUI). Payload-class satellites include a variety of spacecraft equipped with specific instruments for various scientific and technological missions. These include communications satellites like Starlink; space stations such as the ISS; scientific satellites like the Hubble; Earth observation satellites from companies like Planet Labs, Umbra, and HawkEye 360; GPS; miniature CubeSats for education and research; and military/defense satellites.

Loading next visibility...
Identifier
41175, 2015-079B
Orbit
Active
Country
Flag of ESAESA
Related business
Manufacturer
OHB
Mission
Operational Civil Navigation
Bus & Motor
GALILEOSAT, AOCS
Mass
733 kg wet, 660 kg dry
Launch date (UTC)
2015-12-17 (11 years ago)
Launch vehicle
SOYUZ-ST-B
Launch site
French Guiana (FRGUI)
Object type
Payload
Rocket body
Debris
Shape & HBR
Box + 2 Pan, 7.3 m
Radar Cross Section
9.223 m², Large (>1 m²)

Expand to show TLE details & history
Last TLE update: 3 days ago

TLE from 3 days ago
0 GALILEO 11 (268)
1 41175U 15079B   26170.60543083 -.00000012  00000-0  00000-0 0  9999
2 41175  55.8273 101.1925 0004854 343.5334  16.4302  1.70473634 65232
Epoch: 2026-06-19T14:31Z
TLE epoch observation values (Epoch: 2026-06-19T14:31:49.223Z)
Latitude
0.00005°
Longitude
-24.59509°
Altitude
23,208.713 km
Speed
3.671 km/s
True Right ascension
06h 44m 46s
True Declination
0° 00' 00"
Sunlit
Object was in daylight at epoch
Visualization orbit readout
Latitude
Unknown
Longitude
Unknown
Altitude
Unknown
Speed
Unknown
Apparent Right ascension
Unknown
Apparent Declination
Unknown
Sunlit
N/A
Visualization observer readout
Local Sidereal Time
21:41:06
Azimuth
Unknown
Elevation
Unknown
Doppler factor
Unknown
Orbital elements
Apogee altitude
23,236.572 km
Perigee altitude
23,207.836 km
Semi-major axis
29,600.341 km
Eccentricity
0.00049
Inclination
55.8273°
RAAN
101.1925°
Arg. of periapsis
343.5334°
True anomaly
16.44594°
Mean anomaly
16.4302°
Eccentric anomaly
16.43807°
Mean motion
0.42618 °/min
Orbital period
844.7 mins
BSTAR
0
Loading maneuver chart data...
Computing Atmospheric mass density...
Loading historical data...
Loading historical data...
Loading historical data...
Loading historical data...
Loading historical data...
Loading historical data...
Loading historical data...
Other satellites on launch #79 in the year 2015 (2015-12-17 UTC)

Documentation

Showing up to 5 results
|